contact:dominique.lefevre@mio.osupytheas.fr, maurice.libes@osupytheas.fr, didier.mallarino@osupytheas.fr
Project:EMSO http://www.emso-fr.org/EMSO-France
Depth: 2436.0 m
Title:EMSO Ligure Ouest : Data MII capteur AQUADOPP
Date,Latitude,Longitude,X_East,Y_North,Z_Up,Amplitude_X,Amplitude_Y,Amplitude_Z,Batterie,SoundSpeed,Heading,Pitch,Roll,Pressure,TIS,Speed,Direction
, degrees North, degrees East, m.s-1, m.s-1,m.s-1, 1, 1, 1, Volt, m.s-1, degree, degree, degree, dbar, degree_C, m.s-1, degree
2022-10-23T00:04:03,42.805,6.029,-0.025,0.016,-0.005,101.0,101.0,100.0,13.4,1505.2,324.1,-0.7,1.8,2471.042,13.28,0.029,302.6
2022-10-23T00:07:03,42.805,6.029,-0.047,0.032,0.0,101.0,101.0,101.0,13.4,1505.2,328.6,-0.8,1.8,2471.073,13.28,0.056,304.2
2022-10-23T00:10:03,42.805,6.029,-0.042,0.01,-0.002,100.0,102.0,101.0,13.4,1505.2,324.2,-0.8,1.8,2471.049,13.28,0.043,283.4
2022-10-23T00:13:03,42.805,6.029,-0.048,0.001,0.022,101.0,102.0,99.0,13.3,1505.2,322.7,-0.8,1.8,2471.002,13.29,0.048,271.2
2022-10-23T00:16:03,42.805,6.029,-0.043,0.01,0.0,100.0,100.0,101.0,13.4,1505.2,324.6,-0.8,1.8,2471.023,13.29,0.044,283.1
2022-10-23T00:19:03,42.805,6.029,-0.041,-0.003,-0.035,100.0,101.0,100.0,13.4,1505.2,329.4,-0.8,1.8,2471.019,13.29,0.041,265.8
2022-10-23T00:22:03,42.805,6.029,-0.032,-0.013,-0.01,102.0,101.0,99.0,13.4,1505.2,333.1,-0.8,1.8,2471.008,13.29,0.034,247.9
2022-10-23T00:25:03,42.805,6.029,-0.038,0.016,0.033,102.0,101.0,99.0,13.4,1505.2,328.2,-0.7,1.9,2471.051,13.29,0.041,292.8
2022-10-23T00:28:03,42.805,6.029,-0.055,0.029,-0.008,101.0,102.0,100.0,13.3,1505.2,323.5,-0.7,1.8,2471.024,13.29,0.062,297.8
2022-10-23T00:31:03,42.805,6.029,-0.011,0.0,0.021,100.0,102.0,100.0,13.4,1505.2,326.1,-0.8,1.9,2471.039,13.29,0.011,270.0
2022-10-23T00:34:03,42.805,6.029,-0.042,-0.005,-0.022,101.0,101.0,99.0,13.4,1505.2,328.2,-0.8,1.8,2471.043,13.29,0.042,263.2
2022-10-23T00:37:03,42.805,6.029,-0.072,-0.014,-0.046,100.0,101.0,101.0,13.4,1505.2,319.6,-0.7,1.8,2471.01,13.29,0.073,259.0
2022-10-23T00:40:03,42.805,6.029,-0.059,0.016,0.012,101.0,101.0,100.0,13.4,1505.2,329.2,-0.7,1.8,2471.027,13.29,0.061,285.2
2022-10-23T00:43:03,42.805,6.029,-0.061,0.01,-0.002,101.0,101.0,100.0,13.4,1505.2,323.1,-0.7,1.8,2471.027,13.29,0.061,279.3
2022-10-23T00:46:03,42.805,6.029,-0.048,0.007,-0.009,102.0,100.0,99.0,13.3,1505.2,321.8,-0.8,1.9,2471.031,13.29,0.048,278.3
2022-10-23T00:49:03,42.805,6.029,-0.045,0.021,-0.002,101.0,101.0,101.0,13.4,1505.2,321.2,-0.8,1.8,2471.022,13.29,0.049,295.0
2022-10-23T00:52:03,42.805,6.029,-0.059,0.0,-0.017,100.0,102.0,100.0,13.3,1505.2,325.2,-0.7,1.8,2471.036,13.29,0.058,270.0
2022-10-23T00:55:03,42.805,6.029,-0.036,0.006,-0.034,100.0,102.0,101.0,13.4,1505.2,318.9,-0.7,1.8,2471.019,13.29,0.036,279.5
2022-10-23T00:58:03,42.805,6.029,-0.07,0.035,-0.006,101.0,101.0,100.0,13.4,1505.2,329.2,-0.8,1.8,2471.026,13.29,0.078,296.6
2022-10-23T01:04:03,42.805,6.029,0.0,-0.002,0.025,102.0,103.0,101.0,13.3,1505.2,329.3,-0.7,1.8,2471.083,13.28,0.002,180.0
2022-10-23T01:07:03,42.805,6.029,-0.054,0.009,-0.018,101.0,101.0,100.0,13.4,1505.2,327.0,-0.8,1.8,2471.056,13.28,0.054,279.5
2022-10-23T01:10:03,42.805,6.029,-0.042,0.015,-0.01,100.0,101.0,100.0,13.3,1505.2,325.7,-0.8,1.8,2471.074,13.28,0.044,289.6
2022-10-23T01:13:03,42.805,6.029,-0.06,0.017,-0.002,101.0,100.0,100.0,13.3,1505.2,317.5,-0.7,1.8,2471.056,13.28,0.062,285.8
2022-10-23T01:16:03,42.805,6.029,-0.056,0.001,-0.024,100.0,102.0,100.0,13.4,1505.2,331.4,-0.8,1.8,2471.049,13.29,0.056,271.0
2022-10-23T01:19:03,42.805,6.029,-0.047,0.011,0.017,104.0,102.0,100.0,13.3,1505.2,322.3,-0.8,1.8,2471.058,13.29,0.048,283.2
2022-10-23T01:22:03,42.805,6.029,-0.022,0.016,-0.007,101.0,101.0,100.0,13.3,1505.2,325.2,-0.8,1.8,2471.054,13.29,0.027,306.0
2022-10-23T01:25:03,42.805,6.029,-0.066,0.007,-0.015,101.0,101.0,100.0,13.4,1505.2,325.7,-0.8,1.8,2471.073,13.29,0.066,276.1
2022-10-23T01:28:03,42.805,6.029,-0.045,0.03,-0.004,101.0,101.0,100.0,13.4,1505.2,328.9,-0.8,1.8,2471.067,13.29,0.054,303.7
2022-10-23T01:31:03,42.805,6.029,-0.059,0.022,0.022,102.0,101.0,100.0,13.3,1505.2,331.5,-0.7,1.8,2471.054,13.29,0.062,290.4
2022-10-23T01:34:03,42.805,6.029,-0.054,0.027,0.009,100.0,101.0,100.0,13.3,1505.2,333.7,-0.8,1.8,2471.054,13.29,0.06,296.6
2022-10-23T01:37:03,42.805,6.029,-0.049,0.013,-0.007,101.0,100.0,101.0,13.3,1505.2,331.0,-0.8,1.8,2471.039,13.29,0.05,284.9
2022-10-23T01:40:03,42.805,6.029,-0.048,0.008,-0.006,101.0,101.0,100.0,13.3,1505.2,331.2,-0.8,1.8,2471.026,13.29,0.048,279.5
2022-10-23T01:43:03,42.805,6.029,-0.046,0.003,-0.047,99.0,101.0,101.0,13.3,1505.2,323.5,-0.7,1.8,2471.065,13.29,0.046,273.7
2022-10-23T01:46:03,42.805,6.029,-0.062,0.017,0.005,100.0,101.0,100.0,13.4,1505.2,327.8,-0.7,1.8,2471.073,13.29,0.064,285.3
2022-10-23T01:49:03,42.805,6.029,-0.047,0.021,-0.001,100.0,101.0,101.0,13.4,1505.2,317.1,-0.8,1.8,2471.032,13.29,0.051,294.1
2022-10-23T01:52:03,42.805,6.029,-0.05,0.01,-0.007,101.0,101.0,99.0,13.4,1505.2,333.1,-0.8,1.8,2471.036,13.29,0.05,281.3
2022-10-23T01:55:03,42.805,6.029,-0.032,0.017,0.016,100.0,100.0,101.0,13.4,1505.2,327.8,-0.8,1.8,2471.01,13.29,0.036,298.0
2022-10-23T01:58:03,42.805,6.029,-0.075,0.025,-0.006,101.0,102.0,100.0,13.3,1505.2,332.7,-0.7,1.8,2471.033,13.29,0.079,288.4
2022-10-23T02:04:03,42.805,6.029,-0.042,0.005,-0.003,100.0,101.0,100.0,13.3,1505.2,332.1,-0.8,1.8,2471.084,13.28,0.042,276.8
2022-10-23T02:07:03,42.805,6.029,-0.065,0.019,0.022,100.0,100.0,100.0,13.3,1505.2,335.0,-0.8,1.8,2471.095,13.28,0.067,286.3
2022-10-23T02:10:03,42.805,6.029,-0.039,0.02,0.03,100.0,101.0,100.0,13.4,1505.2,325.9,-0.7,1.8,2471.105,13.28,0.043,297.1
2022-10-23T02:13:03,42.805,6.029,-0.036,0.036,0.007,100.0,101.0,100.0,13.4,1505.2,333.4,-0.8,1.8,2471.052,13.28,0.05,315.0
2022-10-23T02:16:03,42.805,6.029,-0.037,0.008,-0.027,101.0,100.0,101.0,13.4,1505.2,333.7,-0.8,1.8,2471.066,13.28,0.037,282.2
2022-10-23T02:19:03,42.805,6.029,-0.045,0.029,0.022,102.0,100.0,100.0,13.4,1505.2,325.6,-0.8,1.8,2471.057,13.29,0.053,302.8
2022-10-23T02:22:03,42.805,6.029,-0.069,0.0,-0.028,99.0,103.0,100.0,13.4,1505.2,323.1,-0.7,1.8,2471.112,13.29,0.068,270.0
2022-10-23T02:25:03,42.805,6.029,-0.042,0.019,0.019,100.0,102.0,99.0,13.3,1505.2,328.0,-0.7,1.8,2471.113,13.29,0.046,294.3
2022-10-23T02:28:03,42.805,6.029,-0.046,0.011,0.0,102.0,101.0,100.0,13.4,1505.2,326.1,-0.7,1.8,2471.038,13.29,0.047,283.4
2022-10-23T02:31:03,42.805,6.029,-0.063,0.013,0.012,101.0,101.0,100.0,13.4,1505.2,318.0,-0.8,1.8,2471.026,13.29,0.064,281.7
2022-10-23T02:34:03,42.805,6.029,-0.037,0.027,0.03,100.0,100.0,99.0,13.4,1505.2,329.1,-0.8,1.8,2471.076,13.29,0.045,306.1
2022-10-23T02:37:03,42.805,6.029,-0.059,0.014,0.009,100.0,101.0,100.0,13.4,1505.2,321.3,-0.8,1.8,2471.079,13.29,0.06,283.3
2022-10-23T02:40:03,42.805,6.029,-0.057,0.006,-0.028,100.0,101.0,99.0,13.4,1505.2,318.4,-0.8,1.8,2471.093,13.29,0.057,276.0
2022-10-23T02:43:03,42.805,6.029,-0.029,0.006,0.023,100.0,101.0,100.0,13.4,1505.2,323.8,-0.8,1.8,2471.074,13.29,0.029,281.7
2022-10-23T02:46:03,42.805,6.029,-0.062,0.007,-0.016,101.0,101.0,99.0,13.4,1505.2,322.1,-0.8,1.8,2471.096,13.29,0.062,276.4
2022-10-23T02:49:03,42.805,6.029,-0.034,0.04,0.038,102.0,100.0,99.0,13.4,1505.2,333.1,-0.8,1.8,2471.066,13.29,0.052,319.6
2022-10-23T02:52:03,42.805,6.029,-0.049,0.015,-0.018,101.0,101.0,99.0,13.4,1505.2,330.0,-0.8,1.8,2471.089,13.29,0.051,287.0
2022-10-23T02:55:03,42.805,6.029,-0.024,-0.001,-0.013,101.0,101.0,99.0,13.3,1505.2,334.6,-0.8,1.8,2471.055,13.29,0.024,267.6
2022-10-23T02:58:03,42.805,6.029,-0.06,0.016,0.011,100.0,102.0,99.0,13.4,1505.2,323.2,-0.8,1.8,2471.144,13.29,0.062,284.9
2022-10-23T03:04:03,42.805,6.029,-0.064,-0.009,-0.004,101.0,101.0,100.0,13.4,1505.2,321.0,-0.8,1.8,2471.159,13.28,0.064,262.0
2022-10-23T03:07:03,42.805,6.029,-0.023,-0.017,-0.025,102.0,101.0,100.0,13.3,1505.2,329.3,-0.8,1.8,2471.135,13.28,0.028,233.5
2022-10-23T03:10:03,42.805,6.029,-0.042,0.004,0.004,100.0,101.0,100.0,13.4,1505.2,317.9,-0.7,1.8,2471.158,13.28,0.042,275.4
2022-10-23T03:13:03,42.805,6.029,-0.06,-0.006,0.001,100.0,100.0,100.0,13.3,1505.2,315.4,-0.8,1.8,2471.112,13.29,0.06,264.3
2022-10-23T03:16:03,42.805,6.029,-0.027,0.011,0.025,101.0,101.0,101.0,13.4,1505.2,323.8,-0.9,1.8,2471.147,13.29,0.029,292.2
2022-10-23T03:19:03,42.805,6.029,-0.039,0.011,0.002,100.0,101.0,100.0,13.4,1505.2,331.4,-0.8,1.8,2471.088,13.29,0.04,285.7
2022-10-23T03:22:03,42.805,6.029,-0.016,-0.003,0.009,101.0,101.0,100.0,13.3,1505.2,318.8,-0.8,1.8,2471.14,13.29,0.016,259.4
2022-10-23T03:25:03,42.805,6.029,-0.054,0.016,-0.024,100.0,101.0,100.0,13.4,1505.2,333.7,-0.8,1.8,2471.111,13.29,0.056,286.5
2022-10-23T03:28:03,42.805,6.029,-0.043,0.015,-0.024,101.0,101.0,100.0,13.4,1505.2,326.7,-0.8,1.8,2471.153,13.29,0.045,289.2
2022-10-23T03:31:03,42.805,6.029,-0.054,0.0,-0.008,101.0,101.0,100.0,13.3,1505.2,320.9,-0.8,1.8,2471.15,13.29,0.053,270.0
2022-10-23T03:34:03,42.805,6.029,-0.041,-0.008,-0.041,102.0,102.0,99.0,13.3,1505.2,322.5,-0.7,1.8,2471.146,13.29,0.041,259.0
2022-10-23T03:37:03,42.805,6.029,-0.034,-0.023,-0.02,101.0,101.0,99.0,13.3,1505.2,322.2,-0.7,1.8,2471.143,13.29,0.041,235.9
2022-10-23T03:40:03,42.805,6.029,-0.05,0.008,-0.015,100.0,100.0,100.0,13.4,1505.2,328.9,-0.7,1.8,2471.12,13.29,0.05,279.1
2022-10-23T03:43:03,42.805,6.029,-0.045,-0.012,-0.033,101.0,101.0,99.0,13.4,1505.2,323.4,-0.7,1.8,2471.106,13.29,0.046,255.1
2022-10-23T03:46:03,42.805,6.029,-0.046,-0.009,-0.002,100.0,101.0,100.0,13.4,1505.2,323.1,-0.8,1.8,2471.124,13.29,0.046,258.9
2022-10-23T03:49:03,42.805,6.029,-0.021,0.001,-0.01,102.0,101.0,98.0,13.3,1505.2,329.6,-0.8,1.8,2471.126,13.29,0.021,272.7
2022-10-23T03:52:03,42.805,6.029,-0.02,-0.006,-0.013,101.0,99.0,101.0,13.4,1505.2,319.3,-0.8,1.8,2471.098,13.29,0.02,253.3
2022-10-23T03:55:03,42.805,6.029,-0.046,0.0,-0.005,101.0,101.0,99.0,13.4,1505.2,328.9,-0.8,1.8,2471.145,13.29,0.046,270.0
2022-10-23T03:58:03,42.805,6.029,-0.043,0.0,-0.009,100.0,101.0,99.0,13.3,1505.2,316.7,-0.7,1.8,2471.118,13.29,0.043,270.0
2022-10-23T05:04:02,42.805,6.029,-0.035,0.0,-0.004,101.0,101.0,100.0,13.4,1505.1,320.4,-0.7,1.8,2471.654,13.27,0.035,270.0
2022-10-23T05:07:03,42.805,6.029,-0.031,0.009,0.009,101.0,101.0,100.0,13.3,1505.2,322.9,-0.8,1.8,2471.553,13.28,0.032,286.2
2022-10-23T05:10:03,42.805,6.029,-0.027,0.011,0.012,101.0,100.0,99.0,13.4,1505.2,326.1,-0.8,1.9,2471.459,13.28,0.029,292.2
2022-10-23T05:13:03,42.805,6.029,-0.044,0.007,-0.009,101.0,102.0,99.0,13.3,1505.2,318.8,-0.8,1.8,2471.401,13.28,0.044,279.0
2022-10-23T05:16:03,42.805,6.029,-0.048,0.012,-0.009,100.0,100.0,101.0,13.4,1505.2,332.5,-0.7,1.8,2471.352,13.28,0.049,284.0
2022-10-23T05:19:03,42.805,6.029,-0.074,0.002,-0.024,101.0,100.0,100.0,13.4,1505.2,328.5,-0.7,1.8,2471.276,13.28,0.074,271.5
2022-10-23T05:22:03,42.805,6.029,-0.034,0.002,-0.019,102.0,100.0,101.0,13.4,1505.2,332.1,-0.8,1.8,2471.245,13.29,0.034,273.4
2022-10-23T05:25:03,42.805,6.029,-0.031,-0.008,0.004,100.0,101.0,100.0,13.4,1505.2,321.6,-0.7,1.9,2471.218,13.29,0.032,255.5
2022-10-23T05:28:03,42.805,6.029,-0.008,-0.009,0.004,101.0,99.0,100.0,13.3,1505.2,328.0,-0.8,1.8,2471.217,13.29,0.012,221.6
2022-10-23T05:31:03,42.805,6.029,-0.048,0.0,-0.012,100.0,100.0,100.0,13.4,1505.2,326.7,-0.8,1.8,2471.202,13.29,0.048,270.0
2022-10-23T05:34:03,42.805,6.029,-0.032,-0.014,-0.067,101.0,100.0,99.0,13.4,1505.2,318.4,-0.8,1.8,2471.159,13.29,0.034,246.4
2022-10-23T05:37:03,42.805,6.029,-0.042,0.018,0.0,100.0,101.0,100.0,13.4,1505.2,329.7,-0.7,1.8,2471.195,13.29,0.045,293.2
2022-10-23T05:40:03,42.805,6.029,-0.053,-0.009,-0.031,101.0,99.0,100.0,13.3,1505.2,322.2,-0.8,1.8,2471.138,13.29,0.053,260.4
2022-10-23T05:43:03,42.805,6.029,-0.058,-0.009,-0.082,100.0,101.0,99.0,13.4,1505.2,319.6,-0.8,1.8,2471.209,13.29,0.058,261.2
2022-10-23T05:46:03,42.805,6.029,-0.052,0.006,-0.014,101.0,101.0,100.0,13.4,1505.2,330.3,-0.7,1.8,2471.192,13.29,0.052,276.6
2022-10-23T05:49:03,42.805,6.029,-0.053,0.027,0.024,101.0,100.0,99.0,13.3,1505.2,316.3,-0.8,1.8,2471.186,13.29,0.059,297.0
2022-10-23T05:52:03,42.805,6.029,-0.037,-0.003,-0.02,101.0,101.0,99.0,13.4,1505.2,333.4,-0.8,1.8,2471.133,13.29,0.037,265.4
2022-10-23T05:55:03,42.805,6.029,-0.059,0.024,0.011,99.0,102.0,101.0,13.4,1505.2,321.2,-0.7,1.8,2471.195,13.29,0.063,292.1
2022-10-23T05:58:03,42.805,6.029,-0.015,-0.008,-0.009,101.0,100.0,100.0,13.4,1505.2,330.2,-0.7,1.8,2471.152,13.29,0.017,241.9
2022-10-23T06:04:03,42.805,6.029,-0.046,-0.004,-0.009,101.0,101.0,100.0,13.3,1505.2,323.5,-0.8,1.8,2471.223,13.28,0.046,265.0
2022-10-23T06:07:03,42.805,6.029,-0.064,0.002,-0.016,100.0,100.0,100.0,13.4,1505.2,318.3,-0.8,1.8,2471.209,13.28,0.064,271.8
2022-10-23T06:10:03,42.805,6.029,-0.031,-0.012,-0.018,100.0,102.0,99.0,13.4,1505.2,321.4,-0.8,1.8,2471.238,13.28,0.033,248.8
2022-10-23T06:13:03,42.805,6.029,-0.041,0.037,0.014,100.0,101.0,100.0,13.4,1505.2,330.2,-0.7,1.8,2471.175,13.29,0.055,312.1
2022-10-23T06:16:03,42.805,6.029,-0.088,0.012,-0.003,101.0,100.0,100.0,13.4,1505.2,324.5,-0.8,1.8,2471.171,13.29,0.088,277.8
2022-10-23T06:19:03,42.805,6.029,-0.045,0.022,0.011,101.0,100.0,99.0,13.4,1505.2,321.3,-0.7,1.8,2471.155,13.29,0.05,296.1
2022-10-23T06:22:03,42.805,6.029,-0.068,0.032,0.021,101.0,100.0,101.0,13.4,1505.2,324.0,-0.7,1.8,2471.179,13.29,0.075,295.2
2022-10-23T06:25:03,42.805,6.029,-0.047,-0.001,-0.006,100.0,101.0,100.0,13.4,1505.2,316.8,-0.8,1.8,2471.178,13.29,0.047,268.8
2022-10-23T06:28:03,42.805,6.029,-0.052,0.002,-0.026,102.0,102.0,99.0,13.4,1505.2,324.4,-0.8,1.9,2471.21,13.29,0.052,272.2
2022-10-23T06:31:03,42.805,6.029,-0.033,-0.01,-0.017,100.0,100.0,100.0,13.3,1505.2,324.5,-0.8,1.8,2471.163,13.29,0.034,253.1
2022-10-23T06:34:03,42.805,6.029,-0.069,0.019,-0.03,100.0,101.0,100.0,13.4,1505.2,329.8,-0.8,1.8,2471.154,13.29,0.071,285.4
2022-10-23T06:37:03,42.805,6.029,-0.049,0.001,0.005,100.0,101.0,100.0,13.4,1505.2,322.3,-0.8,1.8,2471.179,13.29,0.049,271.2
2022-10-23T06:40:03,42.805,6.029,-0.079,0.026,-0.009,101.0,101.0,100.0,13.4,1505.2,325.1,-0.7,1.8,2471.164,13.29,0.083,288.2
2022-10-23T06:43:03,42.805,6.029,-0.037,-0.001,-0.015,100.0,99.0,100.0,13.4,1505.2,330.4,-0.8,1.8,2471.152,13.29,0.037,268.5
2022-10-23T06:46:03,42.805,6.029,-0.046,0.011,-0.018,100.0,101.0,100.0,13.4,1505.2,324.7,-0.8,1.8,2471.173,13.29,0.047,283.4
2022-10-23T06:49:03,42.805,6.029,-0.067,0.032,-0.011,100.0,99.0,101.0,13.4,1505.2,334.0,-0.8,1.8,2471.17,13.29,0.074,295.5
2022-10-23T06:52:03,42.805,6.029,-0.044,0.02,-0.015,101.0,102.0,99.0,13.4,1505.2,329.0,-0.7,1.8,2471.171,13.29,0.048,294.4
2022-10-23T06:55:03,42.805,6.029,-0.042,0.014,-0.018,101.0,102.0,99.0,13.4,1505.2,319.2,-0.8,1.8,2471.18,13.29,0.044,288.4
2022-10-23T06:58:03,42.805,6.029,-0.049,0.043,-0.006,101.0,101.0,100.0,13.3,1505.2,333.1,-0.8,1.8,2471.148,13.29,0.065,311.3
2022-10-23T07:04:03,42.805,6.029,-0.053,0.0,-0.018,101.0,101.0,100.0,13.4,1505.2,325.9,-0.7,1.8,2471.203,13.28,0.053,270.0
2022-10-23T07:07:03,42.805,6.029,-0.069,0.027,0.0,100.0,100.0,100.0,13.3,1505.2,325.7,-0.8,1.8,2471.206,13.28,0.074,291.4
2022-10-23T07:10:03,42.805,6.029,-0.085,0.03,-0.032,103.0,102.0,98.0,13.3,1505.2,334.6,-0.7,1.8,2471.2,13.28,0.09,289.4
2022-10-23T07:13:03,42.805,6.029,-0.037,-0.011,-0.036,101.0,100.0,100.0,13.4,1505.2,324.7,-0.8,1.8,2471.195,13.28,0.038,253.4
2022-10-23T07:16:03,42.805,6.029,-0.07,0.012,-0.021,102.0,100.0,100.0,13.3,1505.2,324.6,-0.8,1.8,2471.19,13.29,0.071,279.7
2022-10-23T07:19:02,42.805,6.029,-0.044,-0.008,-0.006,99.0,101.0,101.0,13.4,1505.2,320.9,-0.8,1.8,2471.201,13.29,0.044,259.7
2022-10-23T07:22:03,42.805,6.029,-0.051,-0.005,-0.041,101.0,101.0,100.0,13.3,1505.2,319.5,-0.8,1.8,2471.191,13.29,0.051,264.4
2022-10-23T07:25:03,42.805,6.029,-0.045,0.01,0.001,102.0,101.0,99.0,13.4,1505.2,324.3,-0.7,1.8,2471.153,13.29,0.046,282.5
2022-10-23T07:28:03,42.805,6.029,-0.05,0.009,-0.008,101.0,101.0,99.0,13.3,1505.2,323.7,-0.7,1.8,2471.168,13.29,0.05,280.2
2022-10-23T07:31:03,42.805,6.029,-0.048,0.018,-0.018,101.0,100.0,100.0,13.4,1505.2,333.7,-0.8,1.8,2471.191,13.29,0.051,290.6
2022-10-23T07:34:03,42.805,6.029,-0.052,-0.009,-0.066,101.0,102.0,100.0,13.4,1505.2,321.2,-0.8,1.8,2471.175,13.29,0.052,260.2
2022-10-23T07:37:03,42.805,6.029,-0.057,-0.002,-0.024,101.0,100.0,101.0,13.3,1505.2,335.0,-0.7,1.8,2471.174,13.29,0.057,268.0
2022-10-23T07:40:03,42.805,6.029,-0.036,0.02,-0.017,100.0,101.0,100.0,13.4,1505.2,332.4,-0.8,1.8,2471.182,13.29,0.041,299.1
2022-10-23T07:43:03,42.805,6.029,-0.044,0.006,-0.024,101.0,101.0,100.0,13.4,1505.2,321.2,-0.7,1.8,2471.154,13.29,0.044,277.8
2022-10-23T07:46:03,42.805,6.029,-0.052,-0.001,-0.003,102.0,101.0,101.0,13.4,1505.2,319.9,-0.8,1.8,2471.148,13.29,0.052,268.9
2022-10-23T07:49:03,42.805,6.029,-0.044,-0.002,0.0,101.0,102.0,100.0,13.4,1505.2,325.4,-0.7,1.8,2471.149,13.29,0.044,267.4
2022-10-23T07:52:03,42.805,6.029,-0.075,0.014,0.067,101.0,102.0,100.0,13.4,1505.2,316.7,-0.8,1.8,2471.132,13.29,0.076,280.6
2022-10-23T07:55:03,42.805,6.029,-0.052,0.021,-0.01,101.0,103.0,100.0,13.3,1505.2,334.4,-0.8,1.8,2471.192,13.29,0.056,292.0
2022-10-23T07:58:03,42.805,6.029,-0.043,-0.001,-0.027,101.0,101.0,101.0,13.4,1505.2,323.1,-0.7,1.8,2471.159,13.29,0.043,268.7
2022-10-23T09:04:02,42.805,6.029,-0.026,0.009,0.0,101.0,102.0,100.0,13.4,1505.1,323.5,-0.8,1.8,2471.592,13.27,0.027,289.1
2022-10-23T09:07:03,42.805,6.029,-0.059,-0.005,-0.015,102.0,101.0,99.0,13.4,1505.2,324.1,-0.8,1.8,2471.498,13.28,0.059,265.2
2022-10-23T09:10:03,42.805,6.029,-0.033,-0.003,-0.001,100.0,102.0,100.0,13.4,1505.2,327.3,-0.7,1.9,2471.392,13.28,0.033,264.8
2022-10-23T09:13:03,42.805,6.029,-0.041,0.009,-0.023,100.0,101.0,100.0,13.3,1505.2,333.4,-0.8,1.8,2471.321,13.28,0.041,282.4
2022-10-23T09:16:03,42.805,6.029,-0.014,-0.017,-0.032,101.0,101.0,100.0,13.3,1505.2,330.3,-0.8,1.8,2471.249,13.28,0.022,219.5
2022-10-23T09:19:03,42.805,6.029,-0.037,-0.004,-0.032,102.0,102.0,100.0,13.3,1505.2,321.4,-0.8,1.8,2471.252,13.28,0.037,263.8
2022-10-23T09:22:03,42.805,6.029,-0.041,0.024,-0.013,102.0,102.0,100.0,13.4,1505.2,322.3,-0.7,1.8,2471.21,13.28,0.047,300.3
2022-10-23T09:25:03,42.805,6.029,-0.038,-0.01,0.016,101.0,101.0,101.0,13.4,1505.2,321.0,-0.8,1.8,2471.159,13.29,0.039,255.3
2022-10-23T09:28:03,42.805,6.029,-0.056,0.026,-0.011,102.0,102.0,100.0,13.4,1505.2,324.8,-0.7,1.8,2471.135,13.29,0.061,294.9
2022-10-23T09:31:03,42.805,6.029,-0.047,0.0,0.008,101.0,101.0,99.0,13.4,1505.2,324.9,-0.8,1.8,2471.1,13.29,0.047,270.0
2022-10-23T09:34:03,42.805,6.029,-0.04,0.034,0.031,101.0,101.0,100.0,13.3,1505.2,331.6,-0.7,1.8,2471.084,13.29,0.052,310.4
2022-10-23T09:37:03,42.805,6.029,-0.058,0.002,-0.021,101.0,101.0,100.0,13.4,1505.2,329.4,-0.7,1.8,2471.083,13.29,0.058,272.0
2022-10-23T09:40:03,42.805,6.029,-0.068,0.001,-0.012,101.0,101.0,100.0,13.4,1505.2,323.6,-0.7,1.8,2471.051,13.29,0.068,270.8
2022-10-23T09:43:03,42.805,6.029,-0.068,0.028,-0.016,102.0,101.0,100.0,13.4,1505.2,319.2,-0.7,1.8,2471.046,13.29,0.073,292.4
2022-10-23T09:46:03,42.805,6.029,-0.042,-0.02,-0.021,102.0,101.0,100.0,13.3,1505.2,324.7,-0.8,1.8,2471.083,13.29,0.046,244.5
2022-10-23T09:49:03,42.805,6.029,-0.031,0.006,-0.036,100.0,102.0,100.0,13.3,1505.2,317.3,-0.8,1.8,2471.087,13.29,0.031,281.0
2022-10-23T09:52:03,42.805,6.029,-0.038,0.0,0.005,102.0,101.0,100.0,13.3,1505.2,323.9,-0.8,1.8,2471.124,13.29,0.038,270.0
2022-10-23T09:55:03,42.805,6.029,-0.055,0.016,-0.039,100.0,100.0,100.0,13.3,1505.2,331.0,-0.8,1.8,2471.053,13.29,0.057,286.2
2022-10-23T09:58:03,42.805,6.029,-0.057,-0.001,-0.029,100.0,101.0,100.0,13.4,1505.2,325.6,-0.7,1.9,2471.076,13.29,0.057,269.0
2022-10-23T10:04:03,42.805,6.029,-0.057,0.004,0.0,102.0,100.0,100.0,13.4,1505.2,328.7,-0.8,1.8,2471.098,13.28,0.057,274.0
2022-10-23T10:07:03,42.805,6.029,-0.059,0.006,-0.01,100.0,101.0,100.0,13.3,1505.2,315.8,-0.8,1.8,2471.096,13.28,0.059,275.8
2022-10-23T10:10:03,42.805,6.029,-0.053,0.007,-0.022,100.0,100.0,100.0,13.4,1505.2,328.6,-0.8,1.8,2471.103,13.28,0.053,277.5
2022-10-23T10:13:03,42.805,6.029,-0.061,0.025,-0.03,103.0,101.0,99.0,13.3,1505.2,327.6,-0.8,1.8,2471.107,13.28,0.065,292.3
2022-10-23T10:16:03,42.805,6.029,-0.046,0.0,-0.024,101.0,103.0,99.0,13.3,1505.2,323.1,-0.8,1.8,2471.105,13.28,0.046,270.0
2022-10-23T10:19:03,42.805,6.029,-0.056,-0.001,-0.028,101.0,103.0,99.0,13.4,1505.2,326.9,-0.8,1.8,2471.103,13.28,0.056,269.0
2022-10-23T10:22:03,42.805,6.029,-0.061,0.011,-0.018,102.0,100.0,99.0,13.4,1505.2,327.9,-0.8,1.8,2471.05,13.28,0.061,280.2
2022-10-23T10:25:03,42.805,6.029,-0.081,0.015,-0.006,102.0,99.0,101.0,13.4,1505.2,320.7,-0.7,1.8,2471.041,13.28,0.082,280.5
2022-10-23T10:28:03,42.805,6.029,-0.072,0.0,-0.009,101.0,100.0,100.0,13.3,1505.2,318.4,-0.8,1.8,2471.065,13.28,0.071,270.0
2022-10-23T10:31:03,42.805,6.029,-0.036,0.025,0.019,102.0,99.0,100.0,13.3,1505.2,332.5,-0.8,1.8,2471.04,13.29,0.043,304.8
2022-10-23T10:34:03,42.805,6.029,-0.061,-0.013,-0.021,101.0,101.0,99.0,13.4,1505.2,322.2,-0.8,1.8,2471.048,13.29,0.062,258.0
2022-10-23T10:37:03,42.805,6.029,-0.055,-0.001,-0.02,101.0,101.0,100.0,13.4,1505.2,315.8,-0.8,1.8,2471.011,13.29,0.055,269.0
2022-10-23T10:40:03,42.805,6.029,-0.042,0.006,-0.001,101.0,100.0,101.0,13.4,1505.2,325.5,-0.8,1.8,2471.052,13.29,0.042,278.1
2022-10-23T10:43:03,42.805,6.029,-0.059,0.007,-0.006,102.0,102.0,100.0,13.3,1505.2,326.3,-0.8,1.8,2471.034,13.29,0.059,276.8
2022-10-23T10:46:03,42.805,6.029,-0.065,0.005,-0.03,101.0,101.0,100.0,13.4,1505.2,321.3,-0.7,1.9,2471.047,13.29,0.065,274.4
2022-10-23T10:49:03,42.805,6.029,-0.049,0.005,-0.018,99.0,102.0,102.0,13.3,1505.2,331.0,-0.7,1.8,2471.064,13.29,0.049,275.8
2022-10-23T10:52:03,42.805,6.029,-0.063,-0.009,-0.024,99.0,100.0,101.0,13.4,1505.2,326.1,-0.8,1.8,2471.027,13.29,0.063,261.9
2022-10-23T10:55:03,42.805,6.029,-0.067,0.015,-0.059,101.0,100.0,100.0,13.4,1505.2,325.7,-0.8,1.8,2471.026,13.29,0.068,282.6
2022-10-23T10:58:03,42.805,6.029,-0.074,-0.003,-0.043,102.0,101.0,99.0,13.4,1505.2,321.1,-0.7,1.8,2471.05,13.29,0.074,267.7
2022-10-23T11:04:03,42.805,6.029,-0.053,0.0,-0.031,102.0,100.0,100.0,13.4,1505.2,320.5,-0.8,1.8,2471.079,13.28,0.053,270.0
2022-10-23T11:07:03,42.805,6.029,-0.027,-0.005,-0.032,101.0,101.0,100.0,13.3,1505.2,324.3,-0.8,1.8,2471.075,13.28,0.027,259.5
2022-10-23T11:10:03,42.805,6.029,-0.05,0.009,0.0,101.0,101.0,100.0,13.4,1505.2,333.4,-0.8,1.9,2471.053,13.28,0.05,280.2
2022-10-23T11:13:03,42.805,6.029,-0.072,0.008,-0.043,102.0,101.0,101.0,13.4,1505.2,326.1,-0.8,1.8,2471.046,13.28,0.072,276.3
2022-10-23T11:16:03,42.805,6.029,-0.032,-0.003,0.004,101.0,100.0,99.0,13.3,1505.2,323.5,-0.8,1.8,2471.074,13.29,0.032,264.6
2022-10-23T11:19:03,42.805,6.029,-0.048,0.002,-0.04,101.0,101.0,100.0,13.3,1505.2,322.6,-0.8,1.8,2471.011,13.29,0.048,272.4
2022-10-23T11:22:03,42.805,6.029,-0.013,-0.003,-0.01,101.0,101.0,102.0,13.3,1505.2,324.0,-0.8,1.8,2471.042,13.29,0.013,257.0
2022-10-23T11:25:03,42.805,6.029,-0.022,-0.007,-0.041,101.0,102.0,100.0,13.4,1505.2,318.4,-0.8,1.8,2471.057,13.29,0.023,252.4
2022-10-23T11:28:03,42.805,6.029,-0.001,-0.009,-0.042,101.0,101.0,100.0,13.3,1505.2,331.0,-0.7,1.8,2471.028,13.29,0.009,186.3
2022-10-23T11:31:03,42.805,6.029,-0.039,-0.01,-0.029,101.0,101.0,101.0,13.4,1505.2,324.6,-0.8,1.8,2471.064,13.29,0.04,255.6
2022-10-23T11:34:03,42.805,6.029,-0.047,-0.004,-0.01,101.0,101.0,99.0,13.4,1505.2,327.3,-0.8,1.8,2471.013,13.29,0.047,265.1
2022-10-23T11:37:03,42.805,6.029,-0.044,0.0,-0.023,101.0,101.0,100.0,13.4,1505.2,319.2,-0.8,1.8,2471.006,13.29,0.044,270.0
2022-10-23T11:40:03,42.805,6.029,-0.049,0.0,-0.041,101.0,101.0,100.0,13.3,1505.2,332.5,-0.8,1.8,2471.056,13.29,0.049,270.0
2022-10-23T11:43:03,42.805,6.029,-0.055,0.012,-0.046,100.0,102.0,100.0,13.3,1505.2,329.0,-0.8,1.8,2471.049,13.29,0.056,282.3
2022-10-23T11:46:03,42.805,6.029,-0.041,-0.001,-0.004,101.0,101.0,100.0,13.4,1505.2,325.9,-0.8,1.8,2471.04,13.29,0.041,268.6
2022-10-23T11:49:03,42.805,6.029,-0.057,0.006,-0.04,100.0,101.0,100.0,13.3,1505.2,322.7,-0.8,1.8,2471.006,13.29,0.057,276.0
2022-10-23T11:52:03,42.805,6.029,-0.073,0.026,-0.029,101.0,100.0,100.0,13.4,1505.2,332.2,-0.7,1.8,2471.023,13.29,0.077,289.6
2022-10-23T11:55:03,42.805,6.029,-0.06,0.021,-0.015,101.0,100.0,100.0,13.3,1505.2,323.9,-0.7,1.9,2470.986,13.29,0.063,289.3